Time,TemperatureF,DewpointF,PressureIn,WindDirection,WindDirectionDegrees,WindSpeedMPH,WindSpeedGustMPH,Humidity,HourlyPrecipIn,Conditions,Clouds,dailyrainin,SoftwareType,DateUTC
2013-06-20 00:02:00,80.0,68.0,30.00,East,95,0.0,0.0,68,0.00,,,0.00,,2013-06-20 04:02:00,
2013-06-20 00:11:00,80.0,68.0,30.00,SE,145,0.0,0.0,68,0.00,,,0.00,,2013-06-20 04:11:00,
2013-06-20 00:23:00,80.0,68.0,30.00,SE,125,0.0,0.0,68,0.00,,,0.00,,2013-06-20 04:23:00,
2013-06-20 00:34:00,80.0,68.0,30.00,SE,125,0.0,0.0,68,0.00,,,0.00,,2013-06-20 04:34:00,
2013-06-20 00:43:00,80.0,68.0,30.00,SE,125,0.0,0.0,68,0.00,,,0.00,,2013-06-20 04:43:00,
2013-06-20 00:53:00,80.0,68.0,30.00,SSW,195,0.0,0.0,68,0.00,,,0.00,,2013-06-20 04:53:00,
2013-06-20 01:02:00,80.0,68.0,30.00,West,270,0.0,0.0,68,0.00,,,0.00,,2013-06-20 05:02:00,
2013-06-20 01:12:00,80.0,68.0,29.97,West,270,0.0,0.0,68,0.00,,,0.00,,2013-06-20 05:12:00,
2013-06-20 01:22:00,80.0,68.0,30.00,West,270,0.0,0.0,68,0.00,,,0.00,,2013-06-20 05:22:00,
2013-06-20 01:33:00,80.0,68.0,30.00,West,270,0.0,0.0,68,0.00,,,0.00,,2013-06-20 05:33:00,
2013-06-20 01:44:00,80.0,68.0,29.97,West,270,0.0,0.0,68,0.00,,,0.00,,2013-06-20 05:44:00,
2013-06-20 01:52:00,80.0,69.0,29.97,West,270,0.0,0.0,69,0.00,,,0.00,,2013-06-20 05:52:00,
2013-06-20 02:02:00,79.0,68.0,29.97,West,270,0.0,0.0,69,0.00,,,0.00,,2013-06-20 06:02:00,
2013-06-20 02:11:00,79.0,68.0,29.97,West,270,0.0,0.0,70,0.00,,,0.00,,2013-06-20 06:11:00,
2013-06-20 02:22:00,79.0,68.0,29.97,West,267,0.0,0.0,69,0.00,,,0.00,,2013-06-20 06:22:00,
2013-06-20 02:33:00,79.0,68.0,29.97,West,267,0.0,0.0,69,0.00,,,0.00,,2013-06-20 06:33:00,
2013-06-20 02:43:00,79.0,68.0,29.97,West,270,0.0,0.0,69,0.00,,,0.00,,2013-06-20 06:43:00,
2013-06-20 02:53:00,79.0,69.0,29.97,West,270,0.0,0.0,71,0.00,,,0.00,,2013-06-20 06:53:00,
2013-06-20 03:01:00,78.0,68.0,29.97,West,270,0.0,0.0,71,0.00,,,0.00,,2013-06-20 07:01:00,
2013-06-20 03:12:00,78.0,68.0,29.97,West,270,0.0,0.0,71,0.00,,,0.00,,2013-06-20 07:12:00,
2013-06-20 03:22:00,78.0,68.0,29.97,West,270,0.0,0.0,71,0.00,,,0.00,,2013-06-20 07:22:00,
2013-06-20 03:34:00,78.0,68.0,29.94,West,270,0.0,0.0,71,0.00,,,0.00,,2013-06-20 07:34:00,
2013-06-20 03:44:00,78.0,68.0,29.94,West,270,0.0,0.0,72,0.00,,,0.00,,2013-06-20 07:44:00,
2013-06-20 03:52:00,78.0,68.0,29.94,West,270,0.0,0.0,72,0.00,,,0.00,,2013-06-20 07:52:00,
2013-06-20 04:02:00,78.0,68.0,29.94,West,265,0.0,0.0,72,0.00,,,0.00,,2013-06-20 08:02:00,
2013-06-20 04:11:00,78.0,69.0,29.94,West,265,0.0,0.0,73,0.00,,,0.00,,2013-06-20 08:11:00,
2013-06-20 04:22:00,78.0,69.0,29.94,West,270,0.0,0.0,73,0.00,,,0.00,,2013-06-20 08:22:00,
2013-06-20 04:34:00,78.0,69.0,29.94,West,270,0.0,0.0,73,0.00,,,0.00,,2013-06-20 08:34:00,
2013-06-20 04:43:00,77.0,68.0,29.94,West,270,0.0,0.0,73,0.00,,,0.00,,2013-06-20 08:43:00,
2013-06-20 04:53:00,77.0,68.0,29.94,West,270,0.0,0.0,73,0.00,,,0.00,,2013-06-20 08:53:00,
2013-06-20 05:02:00,77.0,68.0,29.94,West,270,0.0,0.0,73,0.00,,,0.00,,2013-06-20 09:02:00,
2013-06-20 05:12:00,77.0,68.0,29.94,West,265,0.0,0.0,74,0.00,,,0.00,,2013-06-20 09:12:00,
2013-06-20 05:22:00,77.0,68.0,29.94,West,270,0.0,0.0,74,0.00,,,0.00,,2013-06-20 09:22:00,
2013-06-20 05:33:00,77.0,68.0,29.94,West,270,0.0,0.0,75,0.00,,,0.00,,2013-06-20 09:33:00,
2013-06-20 05:42:00,77.0,68.0,29.97,West,270,0.0,0.0,75,0.00,,,0.00,,2013-06-20 09:42:00,
2013-06-20 05:52:00,77.0,68.0,29.97,West,270,0.0,0.0,75,0.00,,,0.00,,2013-06-20 09:52:00,
2013-06-20 06:01:00,77.0,69.0,29.97,West,270,0.0,0.0,76,0.00,,,0.00,,2013-06-20 10:01:00,
2013-06-20 06:11:00,76.0,68.0,29.97,West,265,0.0,0.0,76,0.00,,,0.00,,2013-06-20 10:11:00,
2013-06-20 06:22:00,77.0,69.0,29.97,West,265,0.0,0.0,76,0.00,,,0.00,,2013-06-20 10:22:00,
2013-06-20 06:34:00,77.0,69.0,29.97,West,265,0.0,0.0,76,0.00,,,0.00,,2013-06-20 10:34:00,
2013-06-20 06:43:00,77.0,69.0,29.97,West,265,0.0,0.0,76,0.00,,,0.00,,2013-06-20 10:43:00,
2013-06-20 06:53:00,77.0,69.0,30.00,West,270,0.0,0.0,76,0.00,,,0.00,,2013-06-20 10:53:00,
2013-06-20 07:02:00,77.0,69.0,30.00,West,270,0.0,0.0,76,0.00,,,0.00,,2013-06-20 11:02:00,
2013-06-20 07:12:00,76.0,68.0,30.00,West,270,0.0,0.0,76,0.00,,,0.00,,2013-06-20 11:12:00,
2013-06-20 07:22:00,77.0,69.0,30.00,West,270,0.0,0.0,76,0.00,,,0.00,,2013-06-20 11:22:00,
2013-06-20 07:34:00,77.0,68.0,30.00,West,270,0.0,0.0,75,0.00,,,0.00,,2013-06-20 11:34:00,
2013-06-20 07:42:00,78.0,69.0,30.00,West,270,0.0,0.0,75,0.00,,,0.00,,2013-06-20 11:42:00,
2013-06-20 07:53:00,79.0,70.0,30.00,West,260,0.0,0.0,73,0.00,,,0.00,,2013-06-20 11:53:00,
2013-06-20 08:02:00,79.0,70.0,30.00,West,260,0.0,0.0,73,0.00,,,0.00,,2013-06-20 12:02:00,
2013-06-20 08:12:00,79.0,69.0,30.00,WNW,300,1.0,6.0,71,0.00,,,0.00,,2013-06-20 12:12:00,
2013-06-20 08:22:00,80.0,70.0,30.03,WNW,290,2.0,2.0,71,0.00,,,0.00,,2013-06-20 12:22:00,
2013-06-20 08:34:00,80.0,69.0,30.03,WNW,298,2.0,5.0,69,0.00,,,0.00,,2013-06-20 12:34:00,
2013-06-20 08:43:00,82.0,69.0,30.03,WNW,295,1.0,0.0,66,0.00,,,0.00,,2013-06-20 12:43:00,
2013-06-20 08:53:00,82.0,69.0,30.03,WNW,295,1.0,0.0,66,0.00,,,0.00,,2013-06-20 12:53:00,
2013-06-20 09:02:00,83.0,70.0,30.03,WNW,295,0.0,0.0,64,0.00,,,0.00,,2013-06-20 13:02:00,
2013-06-20 09:42:00,85.0,70.0,30.03,WNW,290,0.0,2.0,61,0.00,,,0.00,,2013-06-20 13:42:00,
2013-06-20 09:53:00,85.0,70.0,30.03,NW,305,2.0,3.0,61,0.00,,,0.00,,2013-06-20 13:53:00,
2013-06-20 10:02:00,87.0,71.0,30.03,West,265,3.0,5.0,59,0.00,,,0.00,,2013-06-20 14:02:00,
2013-06-20 10:11:00,87.0,71.0,30.03,West,265,3.0,5.0,59,0.00,,,0.00,,2013-06-20 14:11:00,
2013-06-20 10:22:00,87.0,70.0,30.03,WNW,285,3.0,5.0,57,0.00,,,0.00,,2013-06-20 14:22:00,
2013-06-20 10:32:00,87.0,69.0,30.03,WNW,290,3.0,5.0,56,0.00,,,0.00,,2013-06-20 14:32:00,
2013-06-20 10:42:00,87.0,70.0,30.03,WNW,300,3.0,6.0,57,0.00,,,0.00,,2013-06-20 14:42:00,
2013-06-20 10:53:00,87.0,70.0,30.03,WNW,300,3.0,6.0,57,0.00,,,0.00,,2013-06-20 14:53:00,
2013-06-20 11:02:00,87.0,70.0,30.03,West,275,5.0,6.0,57,0.00,,,0.00,,2013-06-20 15:02:00,
2013-06-20 11:11:00,89.0,70.0,30.06,NW,305,3.0,3.0,54,0.00,,,0.00,,2013-06-20 15:11:00,
2013-06-20 11:22:00,89.0,70.0,30.06,WNW,290,3.0,5.0,54,0.00,,,0.00,,2013-06-20 15:22:00,
2013-06-20 11:33:00,90.0,71.0,30.06,WNW,285,3.0,3.0,53,0.00,,,0.00,,2013-06-20 15:33:00,
2013-06-20 11:43:00,89.0,70.0,30.06,West,275,3.0,3.0,53,0.00,,,0.00,,2013-06-20 15:43:00,
2013-06-20 11:53:00,89.0,70.0,30.06,West,275,3.0,3.0,53,0.00,,,0.00,,2013-06-20 15:53:00,
2013-06-20 12:01:00,89.0,70.0,30.06,West,260,3.0,5.0,53,0.00,,,0.00,,2013-06-20 16:01:00,
2013-06-20 12:12:00,92.0,70.0,30.06,NW,305,3.0,5.0,49,0.00,,,0.00,,2013-06-20 16:12:00,
2013-06-20 12:22:00,91.0,70.0,30.06,West,270,3.0,5.0,50,0.00,,,0.00,,2013-06-20 16:22:00,
2013-06-20 12:42:00,91.0,70.0,30.06,West,260,3.0,3.0,50,0.00,,,0.00,,2013-06-20 16:42:00,
2013-06-20 12:52:00,92.0,69.0,30.06,WNW,285,3.0,5.0,48,0.00,,,0.00,,2013-06-20 16:52:00,
2013-06-20 14:01:00,93.0,70.0,30.03,NW,310,2.0,3.0,48,0.00,,,0.00,,2013-06-20 18:01:00,
2013-06-20 14:11:00,91.0,69.0,30.03,East,90,3.0,8.0,48,0.00,,,0.00,,2013-06-20 18:11:00,
2013-06-20 14:22:00,88.0,69.0,30.03,ENE,60,6.0,9.0,53,0.00,,,0.00,,2013-06-20 18:22:00,
2013-06-20 14:33:00,88.0,68.0,30.06,NE,50,8.0,10.0,52,0.00,,,0.00,,2013-06-20 18:33:00,
2013-06-20 14:43:00,87.0,69.0,30.06,ENE,75,8.0,10.0,56,0.00,,,0.00,,2013-06-20 18:43:00,
2013-06-20 14:53:00,85.0,66.0,30.06,NE,50,12.0,14.0,53,0.00,,,0.00,,2013-06-20 18:53:00,
2013-06-20 15:11:00,84.0,68.0,30.06,ENE,60,12.0,13.0,58,0.00,,,0.00,,2013-06-20 19:11:00,
2013-06-20 15:22:00,84.0,70.0,30.06,NE,40,7.0,7.0,63,0.00,,,0.00,,2013-06-20 19:22:00,
2013-06-20 15:34:00,84.0,70.0,30.06,NE,40,7.0,7.0,63,0.00,,,0.00,,2013-06-20 19:34:00,
2013-06-20 15:43:00,85.0,69.0,30.06,East,80,7.0,10.0,58,0.00,,,0.00,,2013-06-20 19:43:00,
2013-06-20 15:52:00,85.0,69.0,30.06,East,80,7.0,10.0,58,0.00,,,0.00,,2013-06-20 19:52:00,
2013-06-20 16:02:00,87.0,69.0,30.06,ENE,65,8.0,8.0,56,0.00,,,0.00,,2013-06-20 20:02:00,
2013-06-20 16:11:00,88.0,69.0,30.06,NE,55,6.0,6.0,53,0.00,,,0.00,,2013-06-20 20:11:00,
2013-06-20 16:22:00,88.0,68.0,30.06,SE,130,3.0,5.0,52,0.00,,,0.00,,2013-06-20 20:22:00,
2013-06-20 16:52:00,87.0,65.0,30.03,East,90,3.0,6.0,48,0.00,,,0.00,,2013-06-20 20:52:00,